Showing default

ESSA 2 (OT-2), 2091

Orbit data source: Space-Track

ESSA 2 (OT-2), 2091 is a payload satellite owned by ESSA (US) in SSO that was launched on Mon, 28 Feb 1966 UTC via a THOR DELTA E launch vehicle from the Air Force Eastern Test Range (AFETR). Payload-class satellites include a variety of spacecraft equipped with specific instruments for various scientific and technological missions. These include communications satellites like Starlink; space stations such as the ISS; scientific satellites like the Hubble; Earth observation satellites from companies like Planet Labs, Umbra, and HawkEye 360; GPS; miniature CubeSats for education and research; and military/defense satellites.

Loading next visibility...
Identifier
2091, 1966-016A
Orbit
SSO
Country
Flag of USUS
Related business
Manufacturer
RCA/East Windsor
Mission
Non-operational Civil Weather
Bus & Motor
TIROS I, Unknown motor
Mass
130 kg wet, 130 kg dry
Launch date (UTC)
1966-02-28 (60 years ago)
Launch vehicle
THOR DELTA E
Launch site
Air Force Eastern Test Range (AFETR)
Object type
Payload
Rocket body
Debris
Shape & HBR
Cyl, 0.5 m
Radar Cross Section
0.920 m², Medium (>0.1 m² and < 1m²)

Expand to show TLE details & history
Last TLE update: 12 hours ago

TLE from 12 hours ago
0 ESSA 2 (OT-2)
1 02091U 66016A   25259.62815565 -.00000041  00000-0  11940-4 0  9997
2 02091 101.2355 170.5477 0039244  91.4684 332.1106 12.69424490758913
Epoch: 2025-09-16T15:04Z
TLE epoch observation values (Epoch: 2025-09-16T15:04:32.648Z)
Latitude
61.34567°
Longitude
-72.61002°
Altitude
1,367.71 km
Speed
7.193 km/s
True Right ascension
09h 57m 22s
True Declination
61° 12' 44"
Sunlit
Object was in daylight at epoch
Visualization orbit readout
Latitude
Unknown
Longitude
Unknown
Altitude
Unknown
Speed
Unknown
Apparent Right ascension
Unknown
Apparent Declination
Unknown
Sunlit
N/A
Visualization observer readout
Local Sidereal Time
19:43:37
Azimuth
Unknown
Elevation
Unknown
Doppler factor
Unknown
Orbital elements
Apogee altitude
1,412.23 km
Perigee altitude
1,351.324 km
Semi-major axis
7,759.914 km
Eccentricity
0.00392
Inclination
101.2355°
RAAN
170.5477°
Arg. of periapsis
91.4684°
True anomaly
331.89933°
Mean anomaly
332.1106°
Eccentric anomaly
332.00506°
Mean motion
3.1751 °/min
Orbital period
113.38 mins
BSTAR
0.00001194
Loading maneuver chart data...
Computing Atmospheric mass density...
Loading historical data...
Loading historical data...
Loading historical data...
Loading historical data...
Loading historical data...
Loading historical data...
Loading historical data...
Other satellites on launch #16 in the year 1966 (1966-02-28 UTC)

Documentation

Showing up to 5 results
|